[[{"header":{"parameterUnit":"m.s-1","parameterCategory":1,"la1":30.2991,"la2":30.254,"lo1":-89.0895,"lo2":-89.0444,"dy":0.0017,"dx":0.0017,"nx":28,"ny":28,"refTime":"2024-05-29T09:00:00:Z","depth":0,"parameterNumber":2,"parameterNumberName":"U-component_of_WINDS"},"data":[0,0,0,0,0,0,0,0,0,0,0,0,0,0,0,0,0,0,0,0,0,0,0,0,0,0,0,0,0,0,0,0,0,0,0,0,0,0,0,0,0,0,0,0,0,0,0,0,0,0,0,0,0,0,0,0,0,0,0.2169,0.217,0,0.2193,0.2194,0.2194,0.2197,0.2196,0.2196,0.2196,0.2219,0.222,0.2221,0,0,0,0,0,0,0,0,0,0,0,0,0,0.2123,0.2124,0.2169,0.217,0.217,0.2193,0.2194,0.2194,0.2197,0.2196,0.2196,0.2196,0.2219,0.222,0.2221,0,0,0,0,0,0,0,0,0,0,0,0,0,0.2145,0.2124,0.2169,0.2174,0.2175,0.2193,0.2194,0.2194,0.2197,0.2196,0.2196,0.2196,0.2218,0.222,0.2221,0.2236,0,0,0.2225,0.2225,0,0,0,0,0,0,0,0,0.2143,0.2146,0.2173,0.2174,0.2175,0.2192,0.2186,0.2208,0.2197,0.2188,0.2196,0.2195,0.221,0.2212,0.2217,0.2237,0.2238,0.2225,0.2226,0.2226,0.2226,0,0,0,0,0,0,0,0.2142,0.2145,0.2179,0.2173,0.2174,0.2174,0.2177,0.219,0.2201,0.2189,0.2189,0.2192,0.221,0.2216,0.2218,0.2238,0.2225,0.2226,0.2227,0.2227,0.2269,0.227,0,0,0,0,0,0,0.214,0.2144,0.2178,0.218,0.2158,0.2175,0.2178,0.2187,0.2201,0.2203,0.2192,0.2192,0.2214,0.2216,0.2219,0.2236,0.2226,0.2227,0.2228,0.2269,0.2269,0.227,0,0,0,0,0,0,0.2139,0.2143,0.2177,0.2162,0.2166,0.2176,0.2186,0.2187,0.2193,0.2203,0.2205,0.2196,0.2214,0.2217,0.2231,0.2237,0.2228,0.2229,0.2268,0.2269,0.227,0.2271,0,0,0,0,0,0,0.2137,0.2142,0.2149,0.2162,0.2167,0.219,0.2186,0.2188,0.2195,0.2195,0.2208,0.2209,0.2214,0.2229,0.2232,0.2238,0.223,0.2268,0.2269,0.2269,0.2271,0.2272,0.2273,0,0,0,0,0,0.2136,0.2148,0.2149,0.2153,0.2175,0.219,0.2193,0.2199,0.2196,0.2202,0.2208,0.2209,0.2236,0.2231,0.2234,0.2241,0.2268,0.2269,0.2269,0.227,0.2271,0.2272,0,0,0,0,0,0,0.2135,0.215,0.2151,0.2169,0.2178,0.2191,0.2199,0.22,0.221,0.221,0.2216,0.2218,0.2232,0.2238,0.2232,0.2255,0.2251,0.2253,0.2251,0.2252,0.2253,0.2251,0.2231,0,0,0,0,0,0.2137,0.2149,0.2161,0.2175,0.218,0.2188,0.2195,0.2199,0.2208,0.2212,0.222,0.2229,0.2239,0.2246,0.2256,0.2271,0.2273,0.2277,0.2278,0.2279,0.228,0.2287,0.2289,0.2272,0.2272,0.2272,0,0,0.2142,0.2151,0.2158,0.2175,0.2183,0.2194,0.2192,0.2204,0.2212,0.2214,0.2228,0.2234,0.2244,0.2258,0.2265,0.2264,0.2285,0.228,0.2281,0.2281,0.2288,0.229,0.2291,0.2273,0.2273,0.2273,0,0,0.2155,0.2164,0.2176,0.2183,0.2195,0.2201,0.2203,0.2215,0.2219,0.2233,0.2235,0.2244,0.2262,0.2269,0.2275,0.2289,0.2289,0.2292,0.2297,0.2304,0.2305,0.2306,0.231,0.2311,0.2293,0.2293,0.2293,0,0.2158,0.2176,0.2182,0.2193,0.22,0.2203,0.2214,0.2221,0.2236,0.224,0.2238,0.226,0.2267,0.2282,0.2286,0.2291,0.2293,0.229,0.2304,0.2305,0.2307,0.231,0.2312,0.2293,0.2293,0.2293,0.2293,0,0.2178,0.219,0.2198,0.2212,0.222,0.2232,0.2238,0.2245,0.2248,0.2253,0.2266,0.2275,0.2286,0.229,0.2293,0.2305,0.2304,0.2303,0.23,0.2308,0.2312,0.2313,0.2293,0.2293,0.2293,0.2293,0,0,0.2192,0.2209,0.2212,0.2217,0.223,0.2239,0.225,0.2261,0.2266,0.2276,0.2284,0.2299,0.2298,0.2304,0.2307,0.2313,0.2322,0.2312,0.2312,0.2313,0.2336,0.2336,0.2337,0.2323,0.2323,0.2324,0.2334,0,0.2206,0.2226,0.2232,0.2248,0.2258,0.2261,0.227,0.2278,0.2283,0.2291,0.2296,0.2306,0.2305,0.2309,0.2315,0.232,0.2327,0.2319,0.233,0.233,0.2327,0.2339,0.234,0.235,0.2336,0.2336,0.2336,0,0.2225,0.2235,0.2252,0.2263,0.2267,0.2275,0.2285,0.2294,0.2303,0.2306,0.2312,0.2315,0.2325,0.2321,0.2335,0.2329,0.2334,0.2337,0.2337,0.2338,0.2334,0.234,0.2353,0.2354,0.2339,0.2339,0.2339,0,0.2232,0.2249,0.2262,0.2267,0.2279,0.2285,0.229,0.2299,0.2305,0.2313,0.2317,0.2327,0.2332,0.2338,0.2343,0.234,0.2355,0.2352,0.2357,0.2357,0.236,0.236,0.2374,0.2364,0.2364,0.2364,0.2364,0,0.2246,0.2256,0.2265,0.2273,0.2284,0.2289,0.23,0.2305,0.2313,0.2321,0.2323,0.233,0.2336,0.2344,0.2347,0.2357,0.236,0.2362,0.2362,0.2361,0.2361,0.2364,0.2363,0.2365,0.2365,0.2365,0.2364,0,0.2255,0.2262,0.2275,0.2286,0.2289,0.2296,0.2305,0.2312,0.2317,0.2326,0.2329,0.2336,0.2345,0.235,0.2362,0.2364,0.2375,0.2375,0.2372,0.2372,0.2377,0.2376,0.2393,0.2395,0.2384,0.2384,0.2384,0,0.2264,0.2272,0.2283,0.2289,0.2294,0.2303,0.2309,0.2314,0.232,0.233,0.2336,0.2345,0.2353,0.2367,0.2373,0.2381,0.2381,0.2387,0.2383,0.2381,0.238,0.238,0.238,0.2387,0.2387,0.2387,0.2387,0,0.2277,0.228,0.2289,0.2299,0.2306,0.2314,0.2321,0.2326,0.2332,0.2338,0.2348,0.2354,0.2365,0.2374,0.2383,0.2387,0.2388,0.2389,0.239,0.2389,0.2386,0.2387,0.2373,0.2388,0.2388,0.2388,0.2388,0.2388,0.2286,0.2293,0.2301,0.2311,0.2317,0.2324,0.2331,0.2336,0.2344,0.2354,0.2356,0.2366,0.2373,0.2385,0.239,0.2397,0.2396,0.2398,0.2399,0.2399,0.2399,0.2385,0.2399,0.2399,0.2398,0.2398,0.2398,0,0.2299,0.2304,0.2313,0.2324,0.2331,0.2331,0.234,0.2345,0.2354,0.2361,0.2368,0.2378,0.2387,0.2393,0.2401,0.2405,0.2406,0.2407,0.2407,0.2407,0.24,0.2397,0.2407,0.2407,0.2407,0.2407,0.2407,0.2407,0.2306,0.2317,0.2321,0.2334,0.234,0.235,0.2354,0.236,0.2365,0.2377,0.2384,0.2388,0.2394,0.2403,0.241,0.2411,0.2414,0.2415,0.2417,0.2409,0.2408,0.2407,0.2405,0.2416,0.2416,0.2424,0.2424,0.2424]},{"header":{"parameterUnit":"m.s-1","parameterCategory":1,"la1":30.2991,"la2":30.254,"lo1":-89.0895,"lo2":-89.0444,"dy":0.0017,"dx":0.0017,"nx":28,"ny":28,"refTime":"2024-05-29T09:00:00:Z","depth":0,"parameterNumber":3,"parameterNumberName":"V-component_of_WINDS"},"data":[0,0,0,0,0,0,0,0,0,0,0,0,0,0,0,0,0,0,0,0,0,0,0,0,0,0,0,0,0,0,0,0,0,0,0,0,0,0,0,0,0,0,0,0,0,0,0,0,0,0,0,0,0,0,0,0,0,0,1.6936,1.6935,0,1.6928,1.6928,1.6928,1.6877,1.6876,1.6874,1.6873,1.6865,1.6866,1.6867,0,0,0,0,0,0,0,0,0,0,0,0,0,1.6904,1.6905,1.6936,1.6935,1.6935,1.6928,1.6928,1.6928,1.6877,1.6876,1.6874,1.6873,1.6865,1.6866,1.6867,0,0,0,0,0,0,0,0,0,0,0,0,0,1.6909,1.6905,1.6936,1.6909,1.6907,1.6928,1.6928,1.6928,1.6877,1.6876,1.6874,1.6872,1.6865,1.6866,1.6867,1.6914,0,0,1.6872,1.6872,0,0,0,0,0,0,0,0,1.6909,1.6911,1.6913,1.6911,1.6908,1.6902,1.6914,1.6923,1.6878,1.6889,1.6873,1.6871,1.6879,1.6879,1.6882,1.6913,1.6913,1.6872,1.6873,1.6873,1.6874,0,0,0,0,0,0,0,1.6909,1.6911,1.6933,1.6913,1.691,1.6897,1.6896,1.6915,1.6894,1.6888,1.6884,1.6884,1.6877,1.688,1.6881,1.6913,1.6872,1.6873,1.6874,1.6875,1.6979,1.6981,0,0,0,0,0,0,1.6912,1.6911,1.6933,1.6932,1.6904,1.6899,1.6898,1.6906,1.6894,1.689,1.6885,1.6881,1.6879,1.688,1.6881,1.6932,1.6873,1.6875,1.6876,1.6977,1.698,1.6982,0,0,0,0,0,0,1.6912,1.6915,1.6933,1.692,1.6922,1.6902,1.6911,1.6906,1.691,1.6892,1.6888,1.6893,1.6877,1.6879,1.6905,1.6931,1.6875,1.6877,1.6975,1.6978,1.6981,1.7037,0,0,0,0,0,0,1.6911,1.6915,1.6933,1.6921,1.6923,1.6959,1.6913,1.6908,1.6912,1.6907,1.6898,1.6895,1.6876,1.6903,1.6907,1.6932,1.6878,1.6973,1.6976,1.698,1.7033,1.7042,1.7049,0,0,0,0,0,1.691,1.6949,1.6934,1.6937,1.6945,1.696,1.6961,1.6939,1.6915,1.6932,1.692,1.6895,1.6928,1.6907,1.691,1.6936,1.6971,1.6975,1.698,1.7029,1.704,1.7049,0,0,0,0,0,0,1.6965,1.6947,1.693,1.6967,1.6965,1.6952,1.6973,1.6951,1.6957,1.6952,1.6924,1.6922,1.6952,1.6947,1.6923,1.6979,1.6945,1.695,1.6982,1.6992,1.7,1.7,1.6879,0,0,0,0,0,1.6981,1.6996,1.6979,1.7013,1.7013,1.6993,1.6999,1.6982,1.698,1.6979,1.6969,1.6967,1.6977,1.6984,1.6992,1.7032,1.7028,1.7051,1.706,1.7066,1.7071,1.709,1.7099,1.6996,1.6996,1.6996,0,0,1.7015,1.7007,1.7018,1.7024,1.7021,1.7036,1.6993,1.7011,1.7022,1.6981,1.7006,1.6999,1.6994,1.7027,1.7041,1.7024,1.7099,1.7072,1.7077,1.7078,1.7095,1.7105,1.7114,1.6999,1.6998,1.6998,0,0,1.7084,1.7081,1.7107,1.7105,1.71,1.7086,1.7093,1.7082,1.7075,1.7099,1.7069,1.708,1.7098,1.7096,1.7097,1.7164,1.714,1.7167,1.7209,1.7228,1.7236,1.7243,1.7265,1.7274,1.7172,1.7172,1.7172,0,1.7127,1.7148,1.7124,1.7143,1.7146,1.711,1.7136,1.7135,1.7133,1.7136,1.7116,1.7136,1.7131,1.7162,1.7178,1.7181,1.7186,1.7168,1.7237,1.7244,1.725,1.7271,1.728,1.7175,1.7175,1.7175,1.7174,0,1.72,1.7215,1.7238,1.7236,1.7241,1.7265,1.7243,1.7251,1.7233,1.7221,1.7245,1.7237,1.7242,1.7248,1.7232,1.7276,1.7265,1.7242,1.7207,1.7263,1.7283,1.7291,1.718,1.7179,1.7178,1.7177,0,0,1.7304,1.7288,1.7296,1.7294,1.7286,1.7297,1.7318,1.7322,1.7329,1.7329,1.7345,1.736,1.7337,1.7339,1.7321,1.7338,1.7389,1.7312,1.7311,1.7325,1.7436,1.7453,1.7463,1.7373,1.7375,1.7376,1.7436,0,1.737,1.7404,1.7381,1.7419,1.7432,1.7397,1.7414,1.7411,1.74,1.7408,1.7396,1.7406,1.7377,1.7377,1.7392,1.738,1.741,1.7375,1.7387,1.7387,1.7388,1.7473,1.7492,1.7549,1.7443,1.7445,1.7446,0,1.7451,1.7453,1.7492,1.7479,1.7483,1.7499,1.7501,1.751,1.7505,1.7495,1.7496,1.7474,1.7492,1.7458,1.7482,1.7458,1.7461,1.7456,1.7457,1.7457,1.7419,1.7474,1.7567,1.7575,1.7457,1.7456,1.7456,0,1.7521,1.7534,1.7558,1.7558,1.7544,1.7556,1.755,1.7543,1.7547,1.7548,1.755,1.7553,1.7555,1.7558,1.7537,1.7514,1.7563,1.7528,1.7555,1.7556,1.7567,1.7566,1.766,1.7571,1.757,1.757,1.757,0,1.7596,1.762,1.7589,1.7604,1.763,1.7604,1.763,1.7621,1.7615,1.7626,1.7597,1.7608,1.758,1.7589,1.7572,1.7594,1.7595,1.7587,1.7583,1.759,1.759,1.7591,1.7586,1.7573,1.7572,1.7572,1.7571,0,1.7679,1.7659,1.7683,1.7667,1.7663,1.7683,1.7669,1.7682,1.7668,1.7684,1.7686,1.7665,1.7673,1.7652,1.7658,1.7646,1.7677,1.7666,1.7679,1.7675,1.7703,1.7701,1.7801,1.7812,1.7716,1.7717,1.7718,0,1.7727,1.7745,1.7731,1.7736,1.7732,1.7742,1.7745,1.772,1.7724,1.7718,1.7731,1.7737,1.774,1.7755,1.774,1.7743,1.7732,1.7767,1.7732,1.7738,1.7731,1.773,1.7731,1.7774,1.7775,1.7776,1.7776,0,1.7815,1.7804,1.7809,1.7811,1.7816,1.7816,1.7814,1.7821,1.7793,1.7799,1.7807,1.781,1.7815,1.782,1.782,1.7814,1.7791,1.7787,1.7794,1.7801,1.7807,1.7803,1.7697,1.7785,1.7784,1.7784,1.7783,1.7783,1.7881,1.7895,1.7886,1.7893,1.7889,1.7888,1.7898,1.7885,1.7891,1.7893,1.7877,1.7888,1.7881,1.7878,1.7874,1.7882,1.7866,1.7876,1.7878,1.788,1.7884,1.7806,1.7882,1.7882,1.7881,1.7881,1.7881,0,1.7966,1.7959,1.7965,1.7963,1.7968,1.7945,1.7942,1.7947,1.7957,1.7952,1.7955,1.7963,1.7968,1.7953,1.7956,1.7965,1.7954,1.7966,1.7965,1.7963,1.7899,1.7893,1.7975,1.7975,1.7975,1.7975,1.7975,1.7975,1.8011,1.8032,1.802,1.8038,1.803,1.804,1.804,1.8038,1.8034,1.8044,1.8048,1.8038,1.8028,1.8029,1.8033,1.8028,1.803,1.8046,1.8037,1.7977,1.7968,1.796,1.7953,1.8047,1.8047,1.8101,1.8101,1.8102]}]]